Wind_Speed
44 44 45 46 46 46 47 47 47 47 47 47 48 48 47 46 45 43 41 39 38 38 38 38 39 39 38 37 36 35 33 32 31 30 30 30 31 31 31 31 31 30
42 44 46 47 49 49 49 50 50 50 50 50 50 51 50 49 47 45 43 42 41 41 41 41 41 40 40 39 39 38 37 36 35 34 34 35 35 36 36 36 35 34
42 43 45 46 47 47 48 48 48 49 49 49 50 50 50 49 48 47 46 45 44 44 43 43 42 41 41 40 39 39 39 39 38 38 38 38 38 38 39 39 39 38
44 44 45 46 45 45 45 45 46 46 46 46 47 48 49 49 49 48 48 47 46 46 45 45 44 43 43 42 42 41 40 40 41 41 41 41 41 41 41 41 41 40
46 46 47 48 48 48 46 46 47 47 47 47 48 49 49 50 50 50 49 49 48 47 46 46 46 46 46 45 44 44 43 43 43 44 44 43 43 43 43 43 43 41
51 50 50 51 52 52 51 50 50 50 51 51 51 51 51 51 50 49 48 48 48 48 47 47 47 47 47 47 47 47 47 47 47 47 46 46 45 45 44 44 43 43
56 55 54 53 54 54 55 54 54 54 53 52 51 51 51 52 52 51 51 52 53 53 52 51 49 49 49 50 50 51 51 51 51 50 49 48 47 47 46 46 45 45
60 60 58 57 56 56 56 56 55 55 54 52 52 52 52 54 56 58 60 61 62 61 60 58 57 55 54 54 55 55 56 56 55 55 54 52 51 50 50 49 48 48
62 62 62 61 60 59 58 58 57 57 56 55 54 53 54 57 59 62 63 64 64 64 63 62 61 60 59 58 57 57 57 57 57 57 57 56 56 55 55 54 53 52
65 65 64 64 63 61 59 59 59 58 58 58 57 57 59 61 62 63 64 64 64 64 64 62 61 60 59 58 58 57 57 57 58 58 58 58 58 58 57 57 57 56
68 67 66 65 64 62 61 61 60 60 61 61 61 62 64 65 65 65 65 65 65 64 63 62 62 61 60 60 60 59 59 58 58 58 57 57 56 56 56 56 56 56
71 70 68 65 63 63 63 63 63 62 62 62 64 67 68 68 68 68 68 67 67 66 65 65 65 65 64 63 62 61 59 58 57 56 55 54 54 53 53 53 53 54
75 73 71 68 66 66 66 65 65 65 65 67 70 71 71 70 71 71 70 70 69 68 67 67 67 67 66 65 62 60 58 56 55 54 53 52 52 51 51 51 51 50
78 77 76 75 73 71 70 69 70 71 71 72 73 73 72 71 72 72 72 71 70 69 68 67 67 66 65 63 61 58 56 54 53 52 51 51 50 49 49 49 48 47
80 79 79 79 78 75 74 75 76 77 78 77 77 76 74 74 75 75 75 74 72 70 69 67 66 64 62 61 59 58 56 54 53 51 50 50 49 48 48 48 48 48
82 81 81 81 80 77 77 78 79 80 80 79 80 80 79 79 80 79 77 76 74 72 70 68 65 63 62 61 59 58 57 55 53 52 52 52 52 51 52 52 52 52
83 83 82 82 81 79 79 79 80 81 81 81 82 84 82 79 78 77 76 76 74 72 69 66 64 63 62 62 61 60 58 57 56 54 54 54 54 54 55 56 57 57
84 84 84 84 83 83 83 83 83 84 84 84 84 84 83 80 79 79 79 78 75 73 70 68 66 65 64 64 63 62 62 61 60 59 58 58 58 58 58 58 59 60
85 85 85 85 85 86 86 86 86 86 86 86 86 86 85 84 84 83 82 80 78 76 74 72 70 68 66 65 65 64 64 64 64 64 64 64 64 64 63 63 62 62
87 88 88 89 89 89 90 89 89 88 88 88 89 89 89 89 89 87 84 82 80 78 76 74 72 70 68 66 65 65 66 67 67 67 68 68 68 68 67 67 66 65
87 88 89 90 90 91 91 92 91 91 92 92 92 92 92 91 91 89 86 83 80 78 76 74 73 72 71 70 69 68 68 69 69 70 70 71 71 70 70 69 68 67
88 89 89 90 91 91 92 92 93 93 93 93 93 92 91 90 89 87 85 83 81 79 77 76 75 74 73 73 72 72 72 72 72 73 73 73 72 72 71 71 70 70
87 88 89 90 90 90 91 91 91 91 91 90 89 89 87 86 85 84 83 82 80 79 78 76 76 75 75 75 75 75 75 75 75 75 75 75 74 74 73 73 73 73
82 83 83 83 84 84 84 84 84 84 84 83 83 82 81 80 79 79 78 78 78 77 76 76 75 75 75 75 75 76 76 76 77 77 77 77 77 76 76 75 75 75
76 76 76 76 76 76 77 77 78 78 78 78 78 77 76 75 75 74 74 73 73 73 73 73 73 74 74 75 75 75 76 76 76 76 76 77 76 76 76 76 76 76
75 74 74 74 74 74 74 75 76 76 76 76 76 75 73 72 72 72 71 70 70 70 70 70 71 71 72 73 73 74 74 75 75 74 74 75 75 74 74 74 74 74
Wind_Direction
269 269 269 269 269 269 270 270 272 274 276 279 281 283 284 285 286 287 287 288 288 288 288 289 290 291 292 292 291 289 286 284 281 279 277 276 277 279 281 283 282 281
269 268 267 267 268 270 271 271 273 275 276 279 281 283 284 285 285 286 287 288 288 288 288 289 290 291 291 291 290 288 285 283 281 280 280 279 280 281 283 284 284 283
267 266 265 265 266 269 271 273 275 277 279 281 283 284 285 286 287 288 288 288 288 288 288 289 289 289 289 289 288 286 283 280 279 279 279 279 279 280 281 282 282 283
262 263 263 265 268 270 272 274 277 278 280 281 282 283 284 286 287 288 288 288 288 288 288 288 288 288 288 288 288 286 283 280 278 277 277 277 277 278 278 278 279 279
256 257 258 261 265 268 269 271 273 275 277 279 279 279 280 281 283 284 285 285 286 286 287 287 287 287 287 287 287 287 285 283 282 280 278 278 278 278 277 277 276 276
254 255 257 260 263 265 266 268 270 272 274 276 276 276 276 276 277 279 280 282 283 285 286 286 286 286 286 286 286 286 285 284 284 283 282 280 279 278 278 277 277 276
255 256 258 261 263 265 265 266 267 269 271 273 273 272 272 271 272 274 277 279 281 282 283 282 281 281 282 283 284 284 284 284 283 283 282 280 279 278 277 277 277 276
255 257 258 259 261 263 264 264 265 266 267 268 269 270 270 270 271 274 276 278 279 279 280 279 279 278 278 278 280 281 280 280 279 279 278 278 277 276 276 275 274 274
255 256 258 259 260 261 261 261 262 263 264 265 266 268 271 273 274 275 277 278 279 279 279 280 280 279 278 278 279 280 279 278 276 276 275 274 274 274 274 274 273 272
255 256 257 258 259 260 261 261 261 263 264 265 266 268 273 277 279 279 280 281 282 282 282 282 282 281 280 280 281 281 280 279 277 276 275 274 273 273 273 273 272 271
255 256 256 257 258 260 262 262 262 264 266 267 268 271 276 280 281 282 283 283 284 284 284 283 283 282 282 282 283 283 281 280 278 277 276 275 274 274 273 272 271 271
255 256 256 256 257 259 262 263 264 265 267 269 271 275 279 281 281 282 283 283 283 283 283 283 283 283 284 284 284 283 282 280 279 277 276 275 274 273 273 272 271 271
256 257 258 257 256 258 261 263 264 264 267 271 274 278 280 281 282 282 282 282 283 283 283 283 284 284 285 285 284 283 282 281 279 277 276 275 274 273 273 272 272 272
258 259 260 260 259 260 261 263 264 266 269 272 275 278 281 282 282 282 282 282 283 283 283 284 284 285 285 284 284 282 281 280 278 277 276 275 274 273 272 271 271 269
259 260 262 262 262 263 263 264 265 267 269 271 273 277 280 281 280 280 281 282 282 283 284 284 285 285 284 284 283 282 280 279 277 276 275 274 273 273 271 270 269 268
259 260 262 263 264 264 265 265 266 267 269 270 271 274 277 279 279 279 280 281 282 282 283 284 284 283 283 282 281 280 279 278 276 275 274 274 274 273 272 272 271 270
259 261 262 263 263 263 264 265 266 267 268 269 270 273 275 276 276 277 279 280 281 281 282 282 281 281 280 280 279 278 277 275 274 272 272 272 273 273 274 274 274 274
259 261 262 263 263 263 263 265 266 267 268 269 271 272 274 274 274 275 277 278 279 279 279 278 278 278 278 277 277 276 274 273 271 269 268 268 269 270 270 271 273 275
258 260 261 262 262 263 264 265 266 268 269 269 270 271 272 273 273 274 275 276 277 277 276 276 275 275 275 274 274 273 272 271 270 268 268 268 268 268 269 269 270 271
257 258 259 260 261 262 263 264 265 267 268 269 270 271 272 273 274 274 275 275 275 275 275 274 273 273 272 271 270 270 269 269 269 268 268 268 268 269 270 270 271 271
258 258 259 260 261 262 263 264 265 266 267 269 270 272 273 274 274 275 275 275 274 274 273 272 272 271 270 269 267 266 266 266 266 266 267 268 268 269 270 271 271 270
259 260 261 261 262 263 264 265 266 267 268 269 269 270 271 272 273 274 274 274 274 273 272 271 271 270 269 269 268 267 266 265 265 265 266 267 267 268 269 270 270 269
259 260 261 262 262 263 264 265 265 266 267 267 268 269 269 270 271 271 272 272 272 272 271 271 270 270 270 269 269 268 267 267 267 267 267 267 267 267 268 268 269 269
259 260 261 262 262 263 264 264 265 265 266 267 267 267 268 268 269 269 270 270 270 270 271 270 270 270 269 269 269 269 268 268 268 268 268 268 268 268 268 269 269 269
260 261 261 262 263 263 264 264 265 265 266 266 266 267 267 268 268 269 269 269 270 270 270 270 270 270 269 269 269 269 269 269 269 269 269 269 269 269 270 270 270 270
262 262 262 262 263 263 263 264 265 265 265 266 266 266 266 267 267 268 268 269 269 269 270 270 269 269 269 269 269 269 269 269 270 270 270 270 270 270 271 271 271 271
Height
10594 10595 10596 10596 10597 10598 10599 10600 10601 10602 10603 10603 10602 10603 10604 10605 10605 10606 10606 10606 10607 10607 10607 10607 10607 10608 10609 10609 10610 10611 10611 10612 10612 10612 10612 10612 10612 10612 10612 10612 10611 10611
10590 10591 10591 10591 10592 10592 10593 10594 10595 10596 10597 10598 10597 10597 10598 10599 10599 10600 10601 10602 10602 10602 10602 10603 10604 10604 10604 10604 10605 10605 10606 10607 10607 10607 10608 10608 10608 10608 10608 10608 10607 10607
10585 10585 10585 10586 10587 10587 10588 10588 10589 10590 10591 10592 10592 10591 10591 10592 10593 10594 10595 10596 10596 10597 10598 10599 10599 10600 10600 10600 10600 10600 10600 10601 10601 10602 10602 10602 10602 10602 10602 10602 10602 10602
10580 10580 10580 10581 10582 10583 10584 10584 10584 10584 10584 10585 10586 10585 10585 10585 10585 10586 10587 10588 10589 10590 10591 10593 10594 10594 10595 10595 10595 10595 10595 10596 10596 10596 10596 10596 10597 10597 10597 10597 10597 10596
10576 10576 10575 10576 10577 10579 10579 10580 10579 10580 10580 10581 10581 10581 10580 10580 10580 10580 10580 10581 10582 10583 10584 10586 10587 10588 10589 10589 10590 10590 10590 10590 10590 10591 10591 10591 10591 10591 10591 10591 10590 10590
10570 10571 10571 10572 10573 10573 10574 10575 10575 10576 10576 10576 10577 10576 10576 10576 10576 10576 10576 10576 10576 10577 10578 10579 10580 10581 10582 10583 10584 10584 10585 10585 10585 10585 10585 10585 10585 10585 10585 10584 10584 10584
10565 10565 10566 10567 10568 10568 10568 10569 10570 10571 10571 10571 10572 10572 10572 10572 10572 10571 10571 10572 10572 10573 10573 10574 10574 10575 10576 10576 10577 10578 10578 10579 10579 10579 10579 10579 10579 10578 10578 10578 10578 10578
10559 10560 10561 10562 10562 10562 10562 10563 10564 10565 10565 10566 10566 10567 10568 10568 10567 10566 10566 10566 10567 10567 10568 10569 10569 10570 10571 10571 10572 10572 10572 10572 10572 10571 10572 10572 10572 10572 10572 10572 10571 10571
10553 10554 10555 10556 10556 10556 10557 10557 10558 10558 10559 10559 10560 10560 10561 10561 10561 10560 10560 10560 10560 10560 10561 10563 10563 10563 10564 10565 10565 10565 10565 10564 10564 10564 10564 10564 10564 10564 10564 10564 10564 10564
10547 10548 10549 10550 10551 10551 10551 10551 10552 10552 10552 10552 10553 10553 10554 10554 10554 10553 10554 10554 10554 10553 10554 10555 10555 10555 10556 10557 10557 10557 10556 10556 10555 10555 10556 10556 10556 10556 10556 10556 10556 10556
10540 10540 10542 10545 10547 10547 10545 10545 10546 10545 10545 10545 10546 10546 10546 10546 10546 10546 10546 10547 10547 10547 10547 10547 10547 10547 10548 10549 10549 10549 10548 10547 10547 10547 10547 10547 10547 10547 10547 10547 10547 10547
10532 10534 10536 10539 10541 10541 10539 10539 10539 10539 10539 10539 10539 10539 10539 10539 10538 10538 10539 10539 10540 10540 10540 10540 10539 10539 10539 10540 10540 10540 10540 10539 10539 10538 10538 10538 10538 10538 10539 10539 10539 10538
10525 10528 10530 10531 10533 10534 10533 10532 10533 10533 10533 10533 10532 10532 10532 10531 10530 10529 10530 10531 10532 10532 10533 10532 10531 10530 10530 10531 10531 10531 10531 10531 10531 10530 10530 10530 10530 10531 10531 10531 10530 10530
10519 10521 10522 10522 10524 10528 10529 10527 10524 10525 10526 10527 10526 10526 10525 10524 10521 10521 10521 10523 10524 10524 10524 10525 10524 10523 10522 10522 10522 10523 10523 10523 10522 10522 10521 10521 10522 10523 10523 10523 10522 10523
10512 10514 10515 10515 10518 10522 10523 10519 10517 10517 10518 10520 10519 10519 10519 10517 10513 10513 10514 10515 10516 10516 10516 10516 10516 10515 10514 10514 10514 10514 10514 10514 10514 10514 10514 10513 10514 10515 10515 10515 10515 10515
10505 10507 10509 10510 10512 10514 10513 10510 10510 10510 10510 10512 10511 10511 10513 10511 10505 10504 10505 10507 10509 10509 10509 10509 10508 10507 10506 10506 10506 10506 10506 10506 10506 10505 10505 10505 10506 10507 10507 10507 10508 10508
10497 10499 10501 10502 10503 10505 10504 10502 10502 10502 10502 10503 10502 10502 10504 10503 10498 10496 10496 10498 10500 10501 10501 10501 10501 10499 10498 10498 10498 10498 10498 10498 10497 10497 10497 10497 10497 10497 10497 10497 10498 10499
10491 10491 10492 10493 10493 10494 10494 10494 10493 10492 10493 10494 10494 10493 10493 10493 10491 10489 10488 10489 10491 10492 10493 10493 10492 10491 10491 10491 10491 10491 10491 10490 10490 10490 10489 10489 10489 10490 10490 10490 10489 10489
10483 10483 10484 10484 10484 10483 10483 10484 10484 10482 10483 10484 10484 10483 10482 10482 10481 10481 10480 10481 10481 10482 10483 10483 10483 10483 10483 10483 10482 10482 10482 10482 10482 10481 10481 10481 10481 10482 10482 10483 10483 10482
10474 10473 10474 10474 10474 10473 10473 10474 10474 10473 10473 10473 10472 10472 10472 10471 10469 10471 10472 10471 10471 10472 10473 10473 10473 10473 10474 10474 10474 10473 10473 10473 10473 10472 10472 10473 10473 10473 10474 10474 10475 10475
10462 10463 10463 10463 10464 10464 10463 10463 10464 10463 10463 10463 10462 10462 10462 10460 10458 10460 10461 10461 10461 10461 10462 10462 10462 10463 10463 10464 10463 10463 10463 10463 10463 10463 10463 10464 10464 10465 10466 10466 10467 10467
10451 10451 10451 10452 10452 10453 10452 10452 10452 10452 10452 10452 10452 10452 10451 10450 10449 10449 10450 10450 10450 10450 10451 10451 10452 10452 10452 10453 10453 10453 10453 10453 10453 10453 10454 10454 10455 10456 10457 10458 10458 10458
10439 10439 10439 10440 10440 10440 10440 10440 10441 10441 10441 10441 10441 10441 10441 10441 10440 10440 10440 10440 10439 10439 10440 10441 10441 10442 10442 10442 10442 10442 10442 10442 10442 10443 10444 10444 10445 10447 10448 10448 10448 10448
10427 10428 10428 10428 10429 10429 10429 10429 10429 10429 10429 10429 10430 10429 10430 10430 10430 10430 10430 10430 10429 10429 10430 10431 10431 10431 10431 10431 10431 10431 10431 10431 10432 10432 10433 10434 10435 10436 10437 10438 10438 10438
10417 10418 10418 10418 10418 10419 10419 10418 10418 10418 10418 10418 10418 10419 10420 10421 10420 10420 10420 10420 10420 10420 10420 10421 10421 10421 10421 10421 10421 10421 10421 10421 10421 10422 10423 10423 10424 10425 10426 10427 10428 10428
10407 10407 10407 10408 10408 10409 10409 10408 10408 10408 10408 10407 10407 10408 10411 10412 10411 10410 10411 10411 10411 10411 10411 10411 10412 10412 10412 10411 10412 10412 10411 10411 10412 10413 10413 10413 10414 10415 10416 10417 10417 10417